Theta_e
300 301 300 299 299 298 297 296 296 296 295 295 295 295 295 295 295 296 298 298 298 299 299 299 299 299 299
298 300 300 299 299 298 298 297 296 296 295 295 295 295 295 294 294 295 296 297 298 298 299 299 299 299 300
297 297 298 299 298 297 298 298 297 296 296 296 295 296 295 295 294 294 294 296 297 298 298 298 298 298 299
297 296 297 299 298 297 296 296 296 297 296 295 296 296 295 295 294 293 293 294 295 297 297 297 298 298 298
297 297 296 296 297 297 298 298 298 299 297 296 295 295 295 295 295 293 293 293 294 295 295 296 297 297 296
294 294 294 294 294 295 295 295 295 297 297 296 296 295 295 295 294 294 293 293 294 294 295 295 294 293 293
291 292 293 293 293 293 293 294 294 294 294 295 295 296 297 294 294 294 293 293 293 293 293 293 292 293 293
289 289 289 289 289 289 291 293 293 293 293 294 294 294 295 294 294 293 293 294 293 292 292 292 292 292 292
289 289 288 288 288 289 288 289 291 291 292 293 294 294 294 294 294 294 293 294 293 293 292 292 291 290 290
287 287 287 287 287 288 287 288 289 288 290 292 292 293 293 294 294 295 293 293 293 293 292 290 289 289 290
288 287 286 286 286 286 286 287 288 288 288 289 292 291 293 293 294 293 293 293 292 292 291 289 289 290 291
286 286 286 286 287 287 287 288 288 289 288 288 289 292 292 293 294 293 292 290 291 291 290 290 291 291 290
286 286 287 287 287 287 287 288 288 288 288 288 288 289 291 291 292 292 291 290 289 289 290 290 290 290 289
286 286 286 286 286 286 287 287 288 288 287 287 289 290 291 290 291 291 291 290 290 290 289 289 288 288 288
285 285 285 285 285 286 286 286 288 287 287 287 288 289 290 290 290 290 291 290 290 290 289 288 288 288 288
285 285 285 285 285 285 285 286 286 286 287 287 287 288 288 289 289 290 290 289 289 289 288 288 288 288 288
284 284 284 284 284 283 284 285 285 285 286 286 287 288 288 288 288 288 287 287 287 287 287 287 287 287 287
Wind_Speed
29 30 29 27 25 24 24 25 25 24 24 24 23 20 20 19 18 17 16 14 13 13 13 12 14 13 14
30 32 34 32 29 29 27 27 26 25 24 24 23 23 21 20 20 18 17 16 14 13 12 12 12 13 13
32 31 34 35 36 33 31 31 28 26 26 25 25 24 24 21 20 20 19 18 17 15 13 12 11 10 10
33 34 33 34 36 38 38 34 34 30 27 27 27 25 24 23 22 21 21 20 19 19 18 16 15 13 12
36 37 37 35 33 35 38 37 38 34 33 29 28 26 24 25 24 23 21 22 21 20 20 20 18 17 16
33 34 35 34 34 32 30 31 35 32 31 32 29 27 24 25 26 25 23 22 21 20 18 18 17 16 15
25 26 28 26 27 29 32 35 37 36 30 39 37 36 30 27 25 24 24 22 21 20 19 18 17 16 15
23 23 22 23 24 26 29 31 34 36 31 38 36 38 33 30 26 26 26 26 24 22 21 20 20 19 18
25 26 27 27 27 25 25 26 29 32 29 27 31 33 37 35 32 29 28 27 25 24 23 23 22 21 20
28 28 28 28 28 28 28 27 27 31 26 22 28 27 31 35 34 32 27 28 26 25 23 22 22 22 21
28 31 32 30 29 27 26 27 27 28 31 24 33 29 34 33 25 23 28 29 27 26 23 21 21 21 21
31 32 31 29 27 26 25 24 25 27 29 26 31 31 26 28 33 24 23 20 27 25 21 21 21 21 20
27 27 26 25 25 24 25 23 23 26 27 28 33 34 37 31 24 21 16 15 17 16 16 18 19 19 19
23 23 24 25 25 23 24 24 24 27 26 27 27 25 33 28 28 24 23 20 18 17 16 17 19 20 21
22 23 24 24 24 22 23 22 23 27 26 24 19 17 15 21 17 20 17 24 20 19 17 20 20 20 21
21 22 23 24 25 23 21 19 20 23 24 22 20 19 21 18 13 15 14 18 20 20 21 23 25 26 24
20 20 20 19 21 22 22 20 22 21 21 22 19 19 20 22 21 19 17 16 18 19 19 22 26 27 26
Wind_Direction
288 292 293 294 293 293 294 294 294 296 298 299 299 296 293 291 288 285 284 285 283 280 275 271 272 268 252
288 289 290 291 291 289 289 290 292 293 292 292 292 291 288 285 285 279 275 275 271 268 266 262 259 259 251
290 289 289 290 292 290 287 286 289 291 288 286 285 284 284 283 278 274 270 266 266 263 260 256 256 252 244
290 290 289 289 290 293 293 290 288 286 283 282 280 279 277 277 276 273 269 264 258 260 257 248 245 241 234
291 293 295 296 293 293 294 293 287 286 284 279 279 279 273 271 271 273 268 262 257 254 254 256 250 245 238
288 290 293 295 296 295 295 296 301 288 288 284 276 274 273 273 270 268 264 256 251 249 244 244 246 242 237
288 288 293 295 297 297 291 290 291 291 291 280 276 271 267 275 268 264 260 253 246 243 241 236 234 239 239
293 294 298 295 295 298 294 292 291 292 289 282 281 275 273 271 269 263 258 251 248 244 239 238 239 237 235
288 290 292 294 294 296 299 298 296 292 292 286 283 284 276 271 268 267 255 251 248 245 243 242 241 238 233
297 293 290 288 288 290 294 293 296 300 298 288 288 290 282 272 267 263 251 247 249 249 248 242 237 232 225
297 297 297 296 293 290 289 287 287 286 298 290 284 286 274 265 265 253 243 243 245 248 251 240 227 219 215
297 295 295 295 297 296 290 287 279 284 288 299 291 271 275 261 246 241 247 242 241 243 239 224 216 220 221
294 295 298 299 297 297 292 289 284 279 284 287 291 272 265 271 258 233 226 223 217 212 213 222 226 233 241
297 300 301 299 298 299 299 296 291 288 290 287 293 252 254 258 247 234 225 211 225 235 244 242 242 243 248
296 297 298 300 299 298 296 299 291 293 300 298 300 287 254 261 252 233 234 216 225 243 254 255 256 256 254
296 295 298 302 303 303 301 299 294 293 293 300 305 295 291 265 258 245 236 244 247 256 255 260 262 263 260
301 300 299 299 301 300 301 298 295 297 293 290 288 297 288 276 265 268 272 268 259 255 250 251 262 261 259